Location: Unspecified
(0.0000°N, 1.0000°E)
Time: 09:50:21
(UTC+02:00)

Amateur Radio Satellites - All Passes

Search period start: 04 September 2015 09:20
Search period end: 05 September 2015 09:20
Location: Unspecified, 0.0000°N, 1.0000°E

Satellite Date Start Highest point End Downlink Frequencies (MHz)
Time Altitude Azimuth
YUBILEINY 04 Sep 09:22:08 09:30:30 51° 86° (E) 09:38:55 435.215
AIST 1 04 Sep 09:23:21 09:26:37 21° 275° (W) 09:29:43
CINEMA 3 04 Sep 09:28:43 09:29:29 11° 98° (E) 09:30:37 145.822/145.860
STRAND 1 04 Sep 09:29:34 09:33:43 24° 259° (WSW) 09:37:41 437.568
Cosmos 2491 04 Sep 09:43:20 09:52:05 82° 94° (E) 10:00:48 435.465 / 435.565
HO-68 04 Sep 09:44:59 09:51:51 51° 104° (ESE) 09:58:46 435.675
JUGNU 04 Sep 09:47:55 09:53:37 44° 340° (NNW) 09:59:18 437.505
CUTE 1.7 + AOD 2 04 Sep 10:02:57 10:07:07 67° 102° (ESE) 10:11:18 437.475
CANX-2 04 Sep 10:17:32 10:21:41 61° 281° (W) 10:25:51 2200.000
CUBEBUG 2 04 Sep 10:29:07 10:32:44 26° 100° (E) 10:36:22 437.445
UWE-3 04 Sep 10:29:09 10:32:01 18° 99° (E) 10:35:02 435.000/436.395/437.385
SEEDS 04 Sep 10:32:35 10:36:40 57° 281° (W) 10:40:46 437.485
DOVE 4 04 Sep 10:43:30 10:47:40 24° 281° (WNW) 10:51:32 437.250
COMPASS 1 04 Sep 10:48:34 10:52:31 45° 281° (W) 10:56:29 437.405
GOMX 1 04 Sep 10:49:20 10:51:43 12° 281° (W) 10:53:39 467.674
Cosmos 2504 04 Sep 10:54:04 10:58:48 18° 83° (E) 11:03:51 435.465 / 435.565
DELFI C3 04 Sep 10:54:27 10:57:50 28° 101° (E) 11:01:19 145.870
AAUSAT CUBESAT 2 04 Sep 10:55:34 10:59:30 44° 281° (W) 11:03:27 437.432
Oscar 11 04 Sep 10:57:42 11:01:56 61° 101° (E) 11:06:12 145.826/435.025
CINEMA 3 04 Sep 11:02:21 11:06:39 35° 281° (WNW) 11:10:45 145.822/145.860
SRMSAT 04 Sep 11:04:07 11:10:02 61° 339° (NNW) 11:15:55 437.500
VERMONT LUNAR 04 Sep 11:04:36 11:07:10 27° 42° (NE) 11:09:47 437.305
TIGRISAT 04 Sep 11:08:27 11:09:46 11° 80° (E) 11:11:27 435.000
YUBILEINY 04 Sep 11:21:13 11:27:16 19° 264° (W) 11:32:42 435.215
ANTELSAT 04 Sep 11:25:02 11:28:29 22° 79° (E) 11:32:07 437.575/2403.000
HO-68 04 Sep 11:34:54 11:39:30 17° 283° (WNW) 11:43:35 435.675
JUGNU 04 Sep 11:38:54 11:43:04 19° 346° (NNW) 11:47:08 437.505
CUSAT 1 04 Sep 11:39:26 11:46:15 32° 81° (E) 11:52:30 437.405
SO-50 04 Sep 11:42:56 11:47:26 44° 67° (ENE) 11:51:48 436.795
ZACube-1 04 Sep 11:49:08 11:53:11 41° 281° (WNW) 11:57:09 437.345
FUNcube-1 04 Sep 11:52:53 11:56:51 37° 281° (W) 12:00:44 145.935
VELOX 1 04 Sep 12:00:50 12:04:02 20° 101° (E) 12:07:24 145.980
AUBIESAT-1 04 Sep 12:03:24 12:07:52 47° 75° (ENE) 12:12:25 437.475
HUMSAT D 04 Sep 12:03:36 12:07:43 90° 308° (NW) 12:11:50 437.325/437.525
UWE-3 04 Sep 12:05:26 12:08:26 18° 281° (W) 12:11:13 435.000/436.395/437.385
CUBEBUG 2 04 Sep 12:07:14 12:09:17 13° 280° (W) 12:11:01 437.445
M-CUBED/EXP-1 PRIME 04 Sep 12:12:07 12:16:47 77° 75° (ENE) 12:21:35 437.505
UNISAT 6 04 Sep 12:14:46 12:19:21 76° 259° (WSW) 12:24:01 437.425
DX 1 04 Sep 12:31:49 12:36:11 77° 282° (WNW) 12:40:34 434.975-435.025
BUGSAT 1 04 Sep 12:32:02 12:35:08 22° 79° (E) 12:38:20 437.445
DANDE 04 Sep 12:32:24 12:40:51 66° 84° (E) 12:48:28 436.750
UKube-1 04 Sep 12:38:34 12:42:53 71° 282° (WNW) 12:47:13 .
DUCHIFAT 1 04 Sep 12:39:43 12:43:51 58° 79° (ENE) 12:48:00 145.980
50 SAT 04 Sep 12:41:20 12:45:07 73° 282° (WNW) 12:48:54 437.505
POLYITAN 1 04 Sep 12:41:29 12:45:42 68° 79° (ENE) 12:49:55 437.675
TIGRISAT 04 Sep 12:42:14 12:46:23 33° 259° (W) 12:50:33 435.000
VERMONT LUNAR 04 Sep 12:42:22 12:43:31 11° 220° (SW) 12:44:33 437.305
POPSAT HIP 1 04 Sep 12:42:35 12:46:47 69° 79° (E) 12:51:00 437.405
Cosmos 2504 04 Sep 12:43:37 12:51:02 45° 267° (W) 12:57:53 435.465 / 435.565
SRMSAT 04 Sep 12:54:43 12:59:28 24° 343° (NNW) 13:04:08 437.500
PHONESAT 2.4 04 Sep 12:57:31 12:59:36 16° 41° (NE) 13:01:48 2401.200-2431.200
CUBEBUG 1 04 Sep 12:57:53 13:02:18 72° 102° (ESE) 13:06:45 437.445
NANOSAT C BR1 04 Sep 12:58:33 13:02:45 69° 258° (WSW) 13:06:57 145.865
QB50P2 04 Sep 13:00:33 13:04:44 59° 259° (WSW) 13:08:55 145.880/145.840
ANTELSAT 04 Sep 13:01:53 13:05:07 18° 260° (W) 13:08:12 437.575/2403.000
AISAT 04 Sep 13:09:08 13:13:19 39° 282° (WNW) 13:17:30 437.250
ESTCUBE 1 04 Sep 13:09:19 13:13:46 61° 281° (W) 13:18:14 437.505/2401.250
QB50P1 04 Sep 13:14:05 13:18:02 38° 259° (W) 13:21:58 145.935-145.965
CUSAT 1 04 Sep 13:21:42 13:28:40 32° 266° (W) 13:34:37 437.405
PCSat 04 Sep 13:27:55 13:33:11 53° 250° (WSW) 13:38:25 145.827
TISAT 1 04 Sep 13:29:27 13:32:24 19° 101° (E) 13:35:30 437.305
JUGNU 04 Sep 13:31:43 13:32:59 11° 354° (N) 13:34:12 437.505
VELOX 1 04 Sep 13:37:20 13:40:27 18° 281° (W) 13:43:23 145.980
BEESAT 3 04 Sep 13:39:02 13:42:55 53° 112° (ESE) 13:46:51 437.485
BEESAT 2 04 Sep 13:56:39 14:00:38 66° 112° (ESE) 14:04:40 435.950
BUGSAT 1 04 Sep 14:08:39 14:10:29 12° 260° (W) 14:12:04 437.445
GONETS M04 04 Sep 14:12:41 14:17:56 18° 84° (E) 14:23:53
SPROUT 04 Sep 14:15:01 14:19:05 40° 281° (W) 14:23:07 437.525
DANDE 04 Sep 14:18:41 14:23:43 16° 265° (W) 14:27:50 436.750
BEESAT 04 Sep 14:27:47 14:29:43 13° 101° (E) 14:32:00 436.000
PHONESAT 2.4 04 Sep 14:34:27 14:37:25 27° 222° (SW) 14:40:22 2401.200-2431.200
SRMSAT 04 Sep 14:47:08 14:49:24 12° 352° (N) 14:51:34 437.500
Oscar 19 04 Sep 14:48:42 14:53:43 56° 78° (ENE) 14:58:47 437.125/150
SWISSCUBE 04 Sep 14:52:08 14:56:19 32° 102° (ESE) 15:00:35 437.505
AIST 2 04 Sep 14:58:41 15:02:47 55° 112° (ESE) 15:06:54 435.215
TISAT 1 04 Sep 15:05:12 15:08:02 17° 280° (W) 15:10:39 437.305
JAS-2 04 Sep 15:18:53 15:22:50 16° 77° (ENE) 15:27:30 435.910
RS-15 04 Sep 15:20:08 15:30:55 67° 112° (ESE) 15:41:44 29.354- 29.394
JUGNU 04 Sep 15:22:11 15:23:11 10° 5° (N) 15:24:13 437.505
ITUPSAT 1 04 Sep 15:31:58 15:36:44 85° 281° (WNW) 15:41:32 437.325
ITAMSAT 1 04 Sep 15:55:54 16:01:01 63° 78° (ENE) 16:06:08 435.822/435.867
Gurwin Techsat 1B 04 Sep 16:00:03 16:05:24 89° 252° (WSW) 16:10:43 435.225
BEESAT 04 Sep 16:03:12 16:07:27 32° 281° (W) 16:11:38 436.000
GONETS M04 04 Sep 16:06:11 16:14:45 54° 266° (W) 16:23:16
KKS-1 04 Sep 16:12:19 16:16:15 32° 101° (ESE) 16:20:15 437.445
Cosmos 2499 04 Sep 16:16:34 16:23:26 34° 84° (E) 16:30:05 435.465 / 435.565
SWISSCUBE 04 Sep 16:31:48 16:34:04 13° 280° (W) 16:36:01 437.505
AO-7 04 Sep 17:00:35 17:08:27 47° 75° (ENE) 17:16:23 29.400- 29.500
JAS-2 04 Sep 17:00:38 17:07:35 59° 259° (WSW) 17:15:07 435.910
JUGNU 04 Sep 17:09:12 17:13:06 18° 14° (NNE) 17:17:05 437.505
STARS 04 Sep 17:19:50 17:24:08 53° 282° (WNW) 17:28:26 437.465
RS-15 04 Sep 17:36:12 17:43:27 18° 296° (WNW) 17:49:49 29.354- 29.394
HORYU 2 04 Sep 17:36:34 17:41:04 90° 258° (WSW) 17:45:34 437.375
ISS 04 Sep 17:38:34 17:41:23 28° 54° (NE) 17:44:14 145.825
KKS-1 04 Sep 17:51:25 17:52:47 11° 280° (W) 17:53:47 437.445
Cosmos 2499 04 Sep 18:10:10 18:16:25 25° 266° (W) 18:22:02 435.465 / 435.565
SRMSAT 04 Sep 18:26:45 18:29:54 15° 12° (NNE) 18:33:09 437.500
MOZHAYETS 4 04 Sep 18:29:05 18:33:18 37° 281° (W) 18:37:31
O/OREOS (USA 219) 04 Sep 18:37:22 18:41:53 86° 284° (WNW) 18:46:23 437.305
CUTE-I 04 Sep 18:51:05 18:53:23 13° 79° (E) 18:56:04 437.470
AO-7 04 Sep 18:54:43 19:01:08 23° 256° (WSW) 19:07:04 29.400- 29.500
JUGNU 04 Sep 18:56:58 19:02:31 43° 20° (NNE) 19:08:03 437.505
CUBESAT XI-V 04 Sep 18:57:31 19:00:59 21° 100° (E) 19:04:38 437.345
Cubesat XI-IV 04 Sep 19:44:24 19:49:42 64° 78° (ENE) 19:54:58 437.490
AIST 1 04 Sep 19:52:39 19:55:47 20° 85° (E) 19:59:05
SRMSAT 04 Sep 20:14:26 20:19:38 32° 19° (NNE) 20:24:53 437.500
STRAND 1 04 Sep 20:22:18 20:27:14 51° 102° (ESE) 20:32:14 437.568
Cosmos 2491 04 Sep 20:23:40 20:28:54 18° 84° (E) 20:34:50 435.465 / 435.565
CUTE-I 04 Sep 20:28:26 20:33:24 38° 258° (WSW) 20:38:15 437.470
CUBESAT XI-V 04 Sep 20:34:57 20:38:18 19° 280° (W) 20:41:28 437.345
JUGNU 04 Sep 20:45:45 20:51:34 69° 202° (SSW) 20:57:25 437.505
PRISM 04 Sep 20:50:52 20:55:00 81° 101° (ESE) 20:59:11 437.425
BRITE-PL 04 Sep 21:24:48 21:28:55 60° 259° (W) 21:33:09 437.365/2234.400
DOVE 4 04 Sep 21:26:24 21:30:13 31° 79° (ENE) 21:34:17 437.250
AIST 1 04 Sep 21:30:36 21:33:19 15° 264° (W) 21:35:47
GOMX 1 04 Sep 21:32:32 21:36:47 79° 79° (E) 21:41:15 467.674
HO-68 04 Sep 21:36:49 21:43:25 42° 77° (ENE) 21:50:08 435.675
CINEMA 3 04 Sep 21:42:40 21:45:36 18° 79° (E) 21:48:48 145.822/145.860
YUBILEINY 04 Sep 21:55:14 22:04:00 85° 273° (W) 22:12:48 435.215
SRMSAT 04 Sep 22:02:59 22:08:56 87° 21° (NNE) 22:14:55 437.500
CUTE 1.7 + AOD 2 04 Sep 22:09:31 22:13:51 86° 78° (ENE) 22:18:08 437.475
Cosmos 2491 04 Sep 22:17:12 22:25:43 54° 266° (W) 22:34:13 435.465 / 435.565
CANX-2 04 Sep 22:24:20 22:28:31 48° 259° (W) 22:32:39 2200.000
ZACube-1 04 Sep 22:25:33 22:26:52 11° 80° (E) 22:28:31 437.345
FUNcube-1 04 Sep 22:28:38 22:30:18 12° 80° (E) 22:32:19 145.935
VERMONT LUNAR 04 Sep 22:31:44 22:33:44 16° 139° (SE) 22:35:48 437.305
JUGNU 04 Sep 22:35:56 22:40:47 26° 197° (SSW) 22:45:34 437.505
SEEDS 04 Sep 22:38:20 22:42:27 47° 259° (W) 22:46:32 437.485
UWE-3 04 Sep 22:39:26 22:43:12 27° 79° (E) 22:47:09 435.000/436.395/437.385
CUBEBUG 2 04 Sep 22:40:50 22:45:01 40° 79° (E) 22:49:23 437.445
COMPASS 1 04 Sep 22:53:23 22:57:21 39° 259° (W) 23:01:16 437.405
DELFI C3 04 Sep 22:54:34 22:58:05 29° 80° (E) 23:01:38 145.870
Cosmos 2504 04 Sep 22:56:03 23:01:28 22° 94° (E) 23:07:35 435.465 / 435.565
AAUSAT CUBESAT 2 04 Sep 22:59:51 23:03:49 39° 259° (W) 23:07:43 437.432
Oscar 11 04 Sep 23:06:28 23:10:51 84° 79° (E) 23:15:11 145.826/435.025
DOVE 4 04 Sep 23:06:57 23:07:59 10° 262° (W) 23:08:39 437.250
CINEMA 3 04 Sep 23:19:13 23:22:40 21° 261° (W) 23:26:03 145.822/145.860
TIGRISAT 04 Sep 23:20:43 23:23:14 16° 100° (E) 23:25:58 435.000
HO-68 04 Sep 23:25:49 23:31:03 21° 257° (WSW) 23:35:53 435.675
ANTELSAT 04 Sep 23:38:24 23:42:11 30° 100° (E) 23:46:00 437.575/2403.000
AISAT 04 Sep 23:47:14 23:49:04 13° 80° (E) 23:51:11 437.250
SRMSAT 04 Sep 23:52:50 23:58:13 35° 199° (SSW) 00:03:36 437.500
SO-50 04 Sep 23:55:19 23:59:50 83° 112° (ESE) 00:04:32 436.795
ZACube-1 04 Sep 23:59:07 00:03:05 31° 260° (W) 00:07:02 437.345
FUNcube-1 05 Sep 00:02:36 00:06:30 29° 260° (W) 00:10:21 145.935
AUBIESAT-1 05 Sep 00:05:54 00:08:59 35° 104° (ESE) 00:12:02 437.475
VERMONT LUNAR 05 Sep 00:07:42 00:10:04 20° 318° (NW) 00:12:23 437.305
HUMSAT D 05 Sep 00:08:43 00:13:00 75° 258° (WSW) 00:17:18 437.325/437.525
VELOX 1 05 Sep 00:12:20 00:16:05 28° 79° (E) 00:19:53 145.980
M-CUBED/EXP-1 PRIME 05 Sep 00:15:13 00:18:35 73° 105° (ESE) 00:21:52 437.505
UWE-3 05 Sep 00:17:20 00:19:38 13° 261° (W) 00:21:40 435.000/436.395/437.385
PCSat 05 Sep 00:21:33 00:26:13 31° 111° (ESE) 00:31:00 145.827
CUSAT 1 05 Sep 00:22:43 00:25:35 61° 95° (E) 00:29:09 437.405
JUGNU 05 Sep 00:27:55 00:30:28 13° 189° (S) 00:32:57 437.505
UNISAT 6 05 Sep 00:28:53 00:33:04 46° 282° (WNW) 00:37:11 437.425
PHONESAT 2.4 05 Sep 00:35:06 00:36:42 13° 140° (SE) 00:38:27 2401.200-2431.200
BUGSAT 1 05 Sep 00:35:09 00:38:39 26° 100° (E) 00:42:14 437.445
50 SAT 05 Sep 00:37:15 00:41:13 86° 258° (WSW) 00:45:11 437.505
DX 1 05 Sep 00:41:48 00:46:02 54° 258° (WSW) 00:50:15 434.975-435.025
DUCHIFAT 1 05 Sep 00:45:39 00:49:53 73° 101° (E) 00:54:06 145.980
Cosmos 2504 05 Sep 00:46:19 00:53:29 41° 275° (W) 01:00:59 435.465 / 435.565
UKube-1 05 Sep 00:47:37 00:51:49 51° 258° (WSW) 00:56:00 .
POLYITAN 1 05 Sep 00:48:14 00:52:30 87° 100° (E) 00:56:45 437.675
POPSAT HIP 1 05 Sep 00:49:05 00:53:20 86° 96° (E) 00:57:37 437.405
SPROUT 05 Sep 00:50:54 00:51:13 10° 80° (E) 00:51:54 437.525
TIGRISAT 05 Sep 00:56:35 00:59:53 20° 281° (W) 01:03:00 435.000
NANOSAT C BR1 05 Sep 01:04:50 01:09:00 55° 281° (WNW) 01:13:08 145.865
QB50P2 05 Sep 01:07:21 01:11:27 47° 281° (W) 01:15:32 145.880/145.840
CUBEBUG 1 05 Sep 01:08:23 01:12:42 81° 258° (WSW) 01:17:00 437.445
ANTELSAT 05 Sep 01:18:03 01:18:52 10° 280° (W) 01:19:19 437.575/2403.000
QB50P1 05 Sep 01:20:44 01:24:32 31° 281° (W) 01:28:17 145.935-145.965
AISAT 05 Sep 01:21:48 01:25:32 26° 259° (W) 01:29:10 437.250
DANDE 05 Sep 01:23:10 01:25:17 19° 280° (W) 01:27:35 436.750
ESTCUBE 1 05 Sep 01:24:00 01:28:11 37° 259° (WSW) 01:32:19 437.505/2401.250
BEESAT 3 05 Sep 01:33:06 01:36:57 57° 68° (ENE) 01:40:47 437.485
TISAT 1 05 Sep 01:34:59 01:38:12 22° 79° (E) 01:41:33 437.305
SRMSAT 05 Sep 01:44:22 01:47:57 16° 192° (SSW) 01:51:26 437.500
VELOX 1 05 Sep 01:50:45 01:52:31 12° 260° (W) 01:53:58 145.980
BEESAT 2 05 Sep 01:51:35 01:55:31 73° 68° (ENE) 01:59:26 435.950
PCSat 05 Sep 02:05:59 02:09:33 17° 292° (WNW) 02:12:50 145.827
PHONESAT 2.4 05 Sep 02:11:21 02:14:33 35° 317° (NW) 02:17:44 2401.200-2431.200
BUGSAT 1 05 Sep 02:12:12 02:14:00 12° 280° (W) 02:15:30 437.445
SPROUT 05 Sep 02:23:23 02:27:12 30° 259° (W) 02:30:55 437.525
GONETS M04 05 Sep 02:44:08 02:51:52 38° 95° (E) 02:59:45
BEESAT 05 Sep 02:48:05 02:51:56 25° 79° (E) 02:55:52 436.000
AIST 2 05 Sep 02:57:30 03:01:32 70° 68° (ENE) 03:05:33 435.215
Gurwin Techsat 1B 05 Sep 03:00:48 03:04:00 17° 101° (E) 03:07:31 435.225
RS-15 05 Sep 03:00:59 03:12:50 59° 68° (ENE) 03:24:50 29.354- 29.394
TISAT 1 05 Sep 03:11:38 03:13:51 13° 260° (W) 03:15:48 437.305
SWISSCUBE 05 Sep 03:13:51 03:18:34 63° 79° (ENE) 03:23:17 437.505
Oscar 19 05 Sep 03:22:25 03:27:27 55° 282° (WNW) 03:32:30 437.125/150
SRMSAT 05 Sep 03:37:43 03:38:10 10° 182° (S) 03:38:33 437.500
ITUPSAT 1 05 Sep 03:54:44 03:59:18 42° 258° (WSW) 04:03:47 437.325
JUGNU 05 Sep 04:07:48 04:10:40 14° 169° (S) 04:13:39 437.505
Cosmos 2499 05 Sep 04:24:21 04:31:49 46° 94° (E) 04:39:54 435.465 / 435.565
KKS-1 05 Sep 04:24:40 04:28:56 48° 78° (ENE) 04:33:13 437.445
BEESAT 05 Sep 04:26:31 04:29:39 17° 259° (W) 04:32:31 436.000
ITAMSAT 1 05 Sep 04:30:57 04:35:57 49° 282° (WNW) 04:40:58 435.822/435.867
JAS-2 05 Sep 04:35:52 04:41:41 83° 100° (E) 04:47:02 435.910
Gurwin Techsat 1B 05 Sep 04:39:14 04:43:53 30° 281° (WNW) 04:48:27 435.225
GONETS M04 05 Sep 04:41:29 04:48:35 27° 275° (W) 04:55:18
MOZHAYETS 4 05 Sep 05:10:18 05:13:12 17° 80° (E) 05:16:18
ISS 05 Sep 05:12:34 05:14:47 17° 127° (SE) 05:17:05 145.825
RS-15 05 Sep 05:15:35 05:25:26 26° 245° (WSW) 05:34:30 29.354- 29.394
SRMSAT 05 Sep 05:26:20 05:28:30 12° 172° (S) 05:30:44 437.500
AO-7 05 Sep 05:26:31 05:34:46 76° 105° (ESE) 05:43:04 29.400- 29.500
STARS 05 Sep 05:31:15 05:35:20 36° 259° (W) 05:39:21 437.465
HORYU 2 05 Sep 05:49:25 05:53:46 58° 281° (WNW) 05:58:06 437.375
JUGNU 05 Sep 05:55:16 06:00:20 29° 162° (SSE) 06:05:28 437.505
Cosmos 2499 05 Sep 06:19:02 06:25:01 21° 277° (W) 06:30:43 435.465 / 435.565
MOZHAYETS 4 05 Sep 06:46:36 06:50:18 23° 259° (W) 06:53:50
Cubesat XI-IV 05 Sep 06:47:26 06:49:11 12° 101° (E) 06:51:21 437.490
O/OREOS (USA 219) 05 Sep 06:48:31 06:52:55 48° 255° (WSW) 06:57:17 437.305
ISS 05 Sep 06:49:20 06:51:06 13° 307° (NW) 06:52:44 145.825
SRMSAT 05 Sep 07:13:53 07:18:30 23° 164° (SSE) 07:23:10 437.500
CUBESAT XI-V 05 Sep 07:15:23 07:19:37 37° 79° (E) 07:23:51 437.345
AO-7 05 Sep 07:24:06 07:27:33 12° 284° (WNW) 07:30:09 29.400- 29.500
CUTE-I 05 Sep 07:27:53 07:32:49 40° 102° (ESE) 07:37:50 437.470
JUGNU 05 Sep 07:43:34 07:49:32 76° 159° (SSE) 07:55:33 437.505
AIST 1 05 Sep 07:59:06 08:02:41 27° 95° (E) 08:06:20
BRITE-PL 05 Sep 08:14:03 08:17:42 19° 99° (E) 08:21:34 437.365/2234.400
Cubesat XI-IV 05 Sep 08:24:09 08:29:11 43° 282° (WNW) 08:34:14 437.490
YUBILEINY 05 Sep 08:34:45 08:40:54 23° 84° (E) 08:47:31 435.215
PRISM 05 Sep 08:54:28 08:58:37 89° 264° (W) 09:02:42 437.425
STRAND 1 05 Sep 08:54:57 09:00:02 63° 258° (WSW) 09:05:04 437.568
Cosmos 2491 05 Sep 08:55:13 09:03:02 38° 95° (E) 09:10:58 435.465 / 435.565
SRMSAT 05 Sep 09:02:06 09:07:59 56° 159° (SSE) 09:13:52 437.500
CUTE-I 05 Sep 09:10:16 09:12:49 13° 281° (W) 09:14:59 437.470
